When you browse on this site, cookies collect data to enhance your experience and personalize the content and advertising you see.
Visit our Privacy Policy to learn more. By continuing to use the site, you agree to this use of cookies and data.
  • în România
  • Lista ţărilor
  • Pe 7 zile
  • Temperatura apei
  • Hartă satelitară
  • Meteo pe hartă
  • Widget-uri
  • user-avatar
    Intrare

    Meteo pe oră la Pravokumskoe

    Astăzi, 18 Iunie, Marţi

    Timp Temperatura Precipitaţii Vânt Presiune Umiditate
    00:00 +23°C° 0 mm 4 m/s 749 mmHg 65%
    01:00 +22°C° 0 mm 4 m/s 749 mmHg 63%
    02:00 +22°C° 0 mm 3 m/s 749 mmHg 60%
    03:00 +23°C° 0 mm 2 m/s 749 mmHg 65%
    04:00 +23°C° 0 mm 2 m/s 749 mmHg 65%
    05:00 +23°C° 0 mm 2 m/s 749 mmHg 66%
    06:00 +24°C° 0 mm 3 m/s 749 mmHg 66%
    07:00 +26°C° 0 mm 2 m/s 749 mmHg 60%
    08:00 +27°C° 0 mm 2 m/s 749 mmHg 54%
    09:00 +29°C° 0 mm 2 m/s 749 mmHg 48%
    10:00 +30°C° 0 mm 2 m/s 749 mmHg 43%
    11:00 +32°C° 0 mm 2 m/s 749 mmHg 39%
    12:00 +34°C° 0 mm 2 m/s 749 mmHg 34%
    13:00 +35°C° 0 mm 2 m/s 749 mmHg 31%
    14:00 +35°C° 0 mm 2 m/s 749 mmHg 28%
    15:00 +36°C° 0 mm 2 m/s 748 mmHg 26%
    16:00 +35°C° 0 mm 1 m/s 748 mmHg 26%
    17:00 +35°C° 0 mm 1 m/s 748 mmHg 27%
    18:00 +34°C° 0 mm 1 m/s 748 mmHg 28%
    19:00 +33°C° 0 mm 1 m/s 748 mmHg 32%
    20:00 +31°C° 0 mm 1 m/s 748 mmHg 35%
    21:00 +29°C° 0 mm 2 m/s 749 mmHg 39%
    22:00 +28°C° 0 mm 2 m/s 749 mmHg 41%
    23:00 +27°C° 0 mm 2 m/s 749 mmHg 44%

    Mâine, 19 Iunie, Miercuri

    Timp Temperatura Precipitaţii Vânt Presiune Umiditate
    00:00 +26°C° 0 mm 2 m/s 749 mmHg 47%
    01:00 +25°C° 0 mm 2 m/s 748 mmHg 49%
    02:00 +25°C° 0 mm 1 m/s 748 mmHg 50%
    03:00 +24°C° 0 mm 1 m/s 748 mmHg 52%
    04:00 +25°C° 0 mm 1 m/s 748 mmHg 51%
    05:00 +26°C° 0 mm 1 m/s 749 mmHg 50%
    06:00 +26°C° 0 mm 2 m/s 749 mmHg 48%
    07:00 +28°C° 0 mm 2 m/s 749 mmHg 44%
    08:00 +30°C° 0 mm 2 m/s 749 mmHg 39%
    09:00 +33°C° 0 mm 3 m/s 749 mmHg 34%
    10:00 +34°C° 0 mm 3 m/s 748 mmHg 30%
    11:00 +35°C° 0 mm 3 m/s 748 mmHg 27%
    12:00 +36°C° 0 mm 3 m/s 748 mmHg 23%
    13:00 +37°C° 0 mm 3 m/s 748 mmHg 22%
    14:00 +37°C° 0 mm 3 m/s 748 mmHg 21%
    15:00 +37°C° 0 mm 2 m/s 748 mmHg 19%
    16:00 +37°C° 0 mm 2 m/s 748 mmHg 21%
    17:00 +37°C° 0 mm 2 m/s 748 mmHg 22%
    18:00 +36°C° 0 mm 2 m/s 748 mmHg 23%
    19:00 +34°C° 0 mm 2 m/s 748 mmHg 26%
    20:00 +31°C° 0 mm 2 m/s 748 mmHg 29%
    21:00 +29°C° 0 mm 3 m/s 748 mmHg 33%
    22:00 +28°C° 0 mm 3 m/s 748 mmHg 36%
    23:00 +27°C° 0 mm 2 m/s 748 mmHg 39%

    Poimâine, 20 Iunie, Joi

    Timp Temperatura Precipitaţii Vânt Presiune Umiditate
    00:00 +26°C° 0 mm 2 m/s 748 mmHg 42%
    01:00 +25°C° 0 mm 2 m/s 748 mmHg 45%
    02:00 +24°C° 0 mm 1 m/s 748 mmHg 48%
    03:00 +24°C° 0 mm 1 m/s 748 mmHg 51%
    04:00 +24°C° 0 mm 1 m/s 748 mmHg 48%
    05:00 +25°C° 0 mm 2 m/s 748 mmHg 44%
    06:00 +26°C° 0 mm 2 m/s 748 mmHg 41%
    07:00 +28°C° 0 mm 3 m/s 748 mmHg 36%
    08:00 +30°C° 0 mm 4 m/s 748 mmHg 32%
    09:00 +33°C° 0 mm 4 m/s 749 mmHg 27%
    10:00 +35°C° 0 mm 4 m/s 748 mmHg 25%
    11:00 +36°C° 0 mm 5 m/s 748 mmHg 23%
    12:00 +37°C° 0 mm 5 m/s 748 mmHg 21%
    13:00 +37°C° 0 mm 5 m/s 748 mmHg 20%
    14:00 +39°C° 0 mm 5 m/s 748 mmHg 20%
    15:00 +39°C° 0 mm 5 m/s 748 mmHg 20%
    16:00 +37°C° 0 mm 5 m/s 748 mmHg 22%
    17:00 +36°C° 0 mm 5 m/s 748 mmHg 24%
    18:00 +35°C° 0 mm 5 m/s 748 mmHg 26%
    19:00 +33°C° 0 mm 4 m/s 748 mmHg 28%
    20:00 +30°C° 0 mm 4 m/s 749 mmHg 30%
    21:00 +29°C° 0 mm 4 m/s 749 mmHg 32%
    22:00 +27°C° 0 mm 3 m/s 749 mmHg 42%
    23:00 +26°C° 0 mm 2 m/s 749 mmHg 51%

    21 Iunie, Vineri

    Timp Temperatura Precipitaţii Vânt Presiune Umiditate
    00:00 +24°C° 0 mm 1 m/s 748 mmHg 61%
    01:00 +24°C° 0 mm 1 m/s 748 mmHg 63%
    02:00 +24°C° 0 mm 1 m/s 749 mmHg 65%
    03:00 +23°C° 0 mm 1 m/s 749 mmHg 66%
    04:00 +24°C° 0 mm 1 m/s 749 mmHg 62%
    05:00 +26°C° 0 mm 2 m/s 749 mmHg 57%
    06:00 +27°C° 0 mm 2 m/s 749 mmHg 52%
    07:00 +28°C° 0 mm 2 m/s 750 mmHg 45%
    08:00 +30°C° 0 mm 2 m/s 750 mmHg 38%
    09:00 +33°C° 0 mm 3 m/s 750 mmHg 31%
    10:00 +33°C° 0 mm 3 m/s 750 mmHg 29%
    11:00 +34°C° 0 mm 3 m/s 750 mmHg 28%
    12:00 +35°C° 0 mm 3 m/s 750 mmHg 26%
    13:00 +34°C° 0 mm 3 m/s 750 mmHg 29%
    14:00 +33°C° 0 mm 3 m/s 750 mmHg 32%
    15:00 +33°C° 0 mm 3 m/s 750 mmHg 35%
    16:00 +31°C° 0 mm 3 m/s 750 mmHg 37%
    17:00 +31°C° 0 mm 2 m/s 750 mmHg 38%
    18:00 +31°C° 0 mm 2 m/s 750 mmHg 39%
    19:00 +29°C° 0 mm 2 m/s 750 mmHg 44%
    20:00 +28°C° 0 mm 2 m/s 751 mmHg 48%
    21:00 +26°C° 0 mm 2 m/s 751 mmHg 52%
    22:00 +25°C° 0 mm 2 m/s 751 mmHg 53%
    23:00 +25°C° 0 mm 2 m/s 751 mmHg 55%

    22 Iunie, Sâmbătă

    Timp Temperatura Precipitaţii Vânt Presiune Umiditate
    00:00 +24°C° 0 mm 2 m/s 751 mmHg 56%
    01:00 +24°C° 0 mm 2 m/s 751 mmHg 56%
    02:00 +24°C° 0 mm 2 m/s 751 mmHg 55%
    03:00 +25°C° 0 mm 3 m/s 751 mmHg 54%
    04:00 +25°C° 0 mm 2 m/s 751 mmHg 53%
    05:00 +26°C° 0 mm 2 m/s 751 mmHg 52%
    06:00 +26°C° 0 mm 2 m/s 751 mmHg 51%
    07:00 +28°C° 0 mm 2 m/s 751 mmHg 46%
    08:00 +29°C° 0 mm 2 m/s 751 mmHg 41%
    09:00 +31°C° 0 mm 2 m/s 751 mmHg 36%
    10:00 +33°C° 0 mm 3 m/s 751 mmHg 32%
    11:00 +35°C° 0 mm 3 m/s 751 mmHg 28%
    12:00 +36°C° 0 mm 4 m/s 750 mmHg 24%
    13:00 +37°C° 0 mm 4 m/s 750 mmHg 23%
    14:00 +38°C° 0 mm 4 m/s 750 mmHg 21%
    15:00 +39°C° 0 mm 5 m/s 750 mmHg 20%
    16:00 +37°C° 0 mm 5 m/s 750 mmHg 22%
    17:00 +37°C° 0 mm 5 m/s 750 mmHg 24%
    18:00 +36°C° 0 mm 6 m/s 750 mmHg 26%
    19:00 +34°C° 0 mm 5 m/s 750 mmHg 32%
    20:00 +30°C° 0 mm 5 m/s 750 mmHg 39%
    21:00 +28°C° 0 mm 5 m/s 751 mmHg 45%
    22:00 +28°C° 0 mm 4 m/s 751 mmHg 47%
    23:00 +27°C° 0 mm 4 m/s 751 mmHg 49%

    23 Iunie, Duminică

    Timp Temperatura Precipitaţii Vânt Presiune Umiditate
    00:00 +26°C° 0 mm 4 m/s 751 mmHg 51%
    01:00 +25°C° 0 mm 3 m/s 751 mmHg 52%
    02:00 +25°C° 0 mm 2 m/s 751 mmHg 54%
    03:00 +24°C° 0 mm 2 m/s 751 mmHg 55%
    04:00 +25°C° 0.1 mm 3 m/s 751 mmHg 54%
    05:00 +26°C° 0.1 mm 3 m/s 751 mmHg 54%
    06:00 +26°C° 0.1 mm 4 m/s 751 mmHg 53%
    07:00 +29°C° 0.1 mm 5 m/s 751 mmHg 45%
    08:00 +32°C° 0.1 mm 5 m/s 751 mmHg 37%
    09:00 +34°C° 0.1 mm 6 m/s 751 mmHg 29%
    10:00 +36°C° 0 mm 6 m/s 751 mmHg 27%
    11:00 +38°C° 0 mm 6 m/s 751 mmHg 24%
    12:00 +39°C° 0 mm 7 m/s 751 mmHg 22%
    13:00 +39°C° 0 mm 7 m/s 751 mmHg 23%
    14:00 +39°C° 0 mm 7 m/s 751 mmHg 23%
    15:00 +39°C° 0 mm 8 m/s 750 mmHg 24%
    16:00 +38°C° 0.1 mm 7 m/s 750 mmHg 26%
    17:00 +36°C° 0.1 mm 7 m/s 750 mmHg 28%
    18:00 +35°C° 0.1 mm 6 m/s 750 mmHg 30%
    19:00 +33°C° 0 mm 5 m/s 751 mmHg 34%
    20:00 +32°C° 0 mm 4 m/s 751 mmHg 38%
    21:00 +29°C° 0 mm 3 m/s 751 mmHg 42%
    22:00 +29°C° 0 mm 3 m/s 751 mmHg 43%
    23:00 +29°C° 0 mm 2 m/s 751 mmHg 44%
    Arată mai mult